Holland, MI

7:20 AM EDT on April 20, 2018 (GMT -0400)
Tulip City

Weather History for KBIV - October, 2013

Change the Weather History Date:

Monday, October 21, 2013

  Actual Average Record
Temperature  
Mean Temperature 50 °F 51 °F  
Max Temperature 58 °F 60 °F 83 °F (1953)
Min Temperature 41 °F 42 °F 25 °F (1974)
Degree Days  
Heating Degree Days 15 14  
Month to date heating degree days 165 236  
Since 1 July heating degree days 297 366  
Cooling Degree Days 0 0  
Month to date cooling degree days 14 10  
Year to date cooling degree days 811 692  
Moisture  
Dew Point 39 °F    
Average Humidity 63    
Maximum Humidity 77    
Minimum Humidity 49    
Precipitation  
Precipitation 0.06 in 0.13 in 0.88 in (1987)
Month to date precipitation 2.75 2.34  
Year to date precipitation 31.94 29.45  
Sea Level Pressure  
Sea Level Pressure 29.83 in    
Wind  
Wind Speed 14 mph (West)    
Max Wind Speed 23 mph    
Max Gust Speed 30 mph    
Visibility 10 miles    
Events Rain    
T = Trace of Precipitation, MM = Missing Value Source: NWS Daily Summary

Daily Weather History Graph

Daily Weather History Graph

Search for Another Location

Airport or City:

Astronomy

Oct. 21, 2013 Rise Set
Actual Time 8:05 AM EDT 6:52 PM EDT
Civil Twilight 7:36 AM EDT 7:20 PM EDT
Nautical Twilight 7:03 AM EDT 7:53 PM EDT
Astronomical Twilight 6:30 AM EDT 8:26 PM EDT
Moon 8:41 PM EDT (10/21) 10:42 AM EDT (10/21)
Length of Visible Light 11h 44m
Length of Day
10h 47m
Waning Gibbous, 93% of the Moon is Illuminated
Oct 21
Waning Gibbous
Oct 26
Last Quarter
Nov 3
New
Nov 10
First Quarter
Nov 17
Full

Hourly Weather History & Observations

Time (EDT) Temp. Windchill Dew Point Humidity Pressure Visibility Wind Dir Wind Speed Gust Speed Precip Events Conditions
12:53 AM 55.9 °F - 48.9 °F 77% 29.78 in 10.0 mi WSW 13.8 mph 21.9 mph 0.01 in Rain Light Rain
1:53 AM 57.0 °F - 48.9 °F 74% 29.78 in 10.0 mi WSW 11.5 mph - 0.00 in   Overcast
2:53 AM 57.9 °F - 46.9 °F 67% 29.78 in 10.0 mi WSW 15.0 mph - 0.00 in   Overcast
3:53 AM 55.0 °F - 48.0 °F 77% 29.78 in 7.0 mi SW 15.0 mph 23.0 mph 0.05 in Rain Rain
4:53 AM 55.0 °F - 45.0 °F 69% 29.78 in 10.0 mi West 13.8 mph 20.7 mph 0.01 in   Overcast
5:53 AM 55.0 °F - 46.0 °F 72% 29.79 in 10.0 mi West 10.4 mph - N/A   Overcast
6:21 AM 53.6 °F - 46.4 °F 77% 29.79 in 10.0 mi West 13.8 mph - N/A   Overcast
6:28 AM 53.6 °F - 44.6 °F 72% 29.79 in 10.0 mi West 17.3 mph 23.0 mph N/A   Overcast
6:53 AM 53.1 °F - 44.1 °F 71% 29.80 in 10.0 mi West 11.5 mph 21.9 mph N/A   Overcast
7:44 AM 51.8 °F - 42.8 °F 71% 29.81 in 10.0 mi West 11.5 mph 23.0 mph N/A   Overcast
7:53 AM 52.0 °F - 43.0 °F 71% 29.76 in 10.0 mi West 13.8 mph 23.0 mph N/A   Overcast
8:53 AM 50.0 °F - 41.0 °F 71% 29.83 in 10.0 mi West 18.4 mph 25.3 mph N/A   Overcast
9:13 AM 50.0 °F - 41.0 °F 71% 29.84 in 10.0 mi West 15.0 mph 23.0 mph N/A   Overcast
9:53 AM 48.9 °F - 41.0 °F 74% 29.80 in 10.0 mi West 13.8 mph 19.6 mph N/A   Overcast
10:43 AM 48.2 °F - 39.2 °F 71% 29.86 in 10.0 mi West 12.7 mph 24.2 mph N/A   Overcast
10:53 AM 46.9 °F - 39.0 °F 74% 29.81 in 10.0 mi WNW 11.5 mph 21.9 mph N/A   Overcast
11:19 AM 46.4 °F 40.7 °F 37.4 °F 71% 29.86 in 10.0 mi West 12.7 mph 21.9 mph N/A   Overcast
11:53 AM 46.9 °F - 37.0 °F 68% 29.87 in 10.0 mi West 11.5 mph 20.7 mph N/A   Overcast
12:31 PM 46.4 °F 41.5 °F 37.4 °F 71% 29.87 in 10.0 mi WNW 10.4 mph 20.7 mph N/A   Overcast
12:53 PM 46.9 °F - 37.0 °F 68% 29.87 in 10.0 mi West 11.5 mph 19.6 mph N/A   Overcast
1:30 PM 46.4 °F 41.9 °F 37.4 °F 71% 29.87 in 10.0 mi West 9.2 mph 19.6 mph N/A   Overcast
1:41 PM 46.4 °F 40.1 °F 35.6 °F 66% 29.86 in 10.0 mi WSW 15.0 mph 20.7 mph N/A   Overcast
1:53 PM 46.9 °F - 36.0 °F 66% 29.86 in 10.0 mi West 11.5 mph - N/A   Overcast
2:53 PM 46.0 °F 39.6 °F 35.1 °F 66% 29.86 in 10.0 mi WSW 15.0 mph 23.0 mph N/A   Overcast
3:53 PM 46.0 °F 40.6 °F 35.1 °F 66% 29.81 in 10.0 mi West 11.5 mph - N/A   Overcast
4:53 PM 46.0 °F 40.2 °F 33.1 °F 61% 29.81 in 10.0 mi West 12.7 mph - N/A   Overcast
5:53 PM 46.0 °F 39.6 °F 32.0 °F 58% 29.80 in 10.0 mi West 15.0 mph 23.0 mph N/A   Overcast
6:53 PM 46.0 °F 40.6 °F 32.0 °F 58% 29.87 in 10.0 mi West 11.5 mph - N/A   Overcast
7:53 PM 46.0 °F 39.0 °F 35.1 °F 66% 29.89 in 10.0 mi West 17.3 mph 25.3 mph N/A   Overcast
8:53 PM 44.1 °F 36.8 °F 32.0 °F 63% 29.90 in 10.0 mi WNW 16.1 mph 27.6 mph N/A   Overcast
9:53 PM 42.1 °F 34.9 °F 28.0 °F 58% 29.92 in 10.0 mi WNW 13.8 mph 28.8 mph N/A   Overcast
10:53 PM 42.1 °F 34.5 °F 27.0 °F 55% 29.92 in 10.0 mi WNW 15.0 mph 26.5 mph N/A   Overcast
11:53 PM 42.1 °F 34.5 °F 25.0 °F 51% 29.91 in 10.0 mi West 15.0 mph 23.0 mph N/A   Overcast